0 HST 1 20580U 90037B 26126.99845732 .00006020 00000-0 19186-3 0 9994 2 20580 28.4762 1.9769 0002131 49.8237 310.2545 15.30309267782258 0 ISS (ZARYA) 1 25544U 98067A 26127.16721672 .00005508 00000-0 10757-3 0 9991 2 25544 51.6305 143.1491 0007435 32.2307 327.9134 15.49128668565398 0 CXO 1 25867U 99040B 26129.70737146 .00000792 00000-0 00000-0 0 9993 2 25867 55.5364 117.7999 7900392 310.4423 0.0547 0.37799268 17171